When you browse on this site, cookies collect data to enhance your experience and personalize the content and advertising you see.
Visit our Privacy Policy to learn more. By continuing to use the site, you agree to this use of cookies and data.
  • In Spain
  • List of Countries
  • For 7 days
  • Water Temperature
  • Weather Map
  • Weather Widgets
  • user-avatar
    Login

    Hourly Weather Yulara

    Today, 7 June, Sunday

    Time Temperature Precipitation Wind Pressure Humidity
    00:00 +7°C° 0 mm 5 mps 722 mmHg 38%
    01:00 +7°C° 0 mm 5 mps 722 mmHg 40%
    02:00 +6°C° 0 mm 5 mps 722 mmHg 42%
    03:00 +6°C° 0 mm 5 mps 722 mmHg 44%
    04:00 +6°C° 0 mm 5 mps 722 mmHg 48%
    05:00 +5°C° 0 mm 5 mps 722 mmHg 52%
    06:00 +5°C° 0 mm 5 mps 722 mmHg 56%
    07:00 +6°C° 0 mm 5 mps 722 mmHg 57%
    08:00 +8°C° 0 mm 6 mps 722 mmHg 58%
    09:00 +10°C° 0 mm 7 mps 723 mmHg 58%
    10:00 +12°C° 0 mm 7 mps 722 mmHg 50%
    11:00 +15°C° 0 mm 7 mps 722 mmHg 41%
    12:00 +18°C° 0 mm 7 mps 722 mmHg 32%
    13:00 +18°C° 0 mm 7 mps 721 mmHg 30%
    14:00 +20°C° 0 mm 6 mps 721 mmHg 27%
    15:00 +21°C° 0 mm 6 mps 720 mmHg 25%
    16:00 +19°C° 0 mm 5 mps 720 mmHg 30%
    17:00 +16°C° 0 mm 5 mps 720 mmHg 34%
    18:00 +14°C° 0 mm 4 mps 721 mmHg 39%
    19:00 +13°C° 0 mm 5 mps 721 mmHg 41%
    20:00 +12°C° 0 mm 5 mps 722 mmHg 44%
    21:00 +10°C° 0 mm 5 mps 722 mmHg 46%
    22:00 +9°C° 0 mm 5 mps 722 mmHg 50%
    23:00 +8°C° 0 mm 5 mps 722 mmHg 54%

    Tomorrow, 8 June, Monday

    Time Temperature Precipitation Wind Pressure Humidity
    00:00 +7°C° 0 mm 5 mps 722 mmHg 58%
    01:00 +6°C° 0 mm 5 mps 722 mmHg 62%
    02:00 +6°C° 0 mm 5 mps 722 mmHg 65%
    03:00 +5°C° 0 mm 5 mps 722 mmHg 68%
    04:00 +5°C° 0 mm 5 mps 722 mmHg 70%
    05:00 +3°C° 0 mm 5 mps 722 mmHg 72%
    06:00 +4°C° 0 mm 4 mps 723 mmHg 74%
    07:00 +5°C° 0 mm 5 mps 723 mmHg 67%
    08:00 +7°C° 0 mm 5 mps 723 mmHg 61%
    09:00 +9°C° 0 mm 6 mps 724 mmHg 55%
    10:00 +11°C° 0 mm 6 mps 723 mmHg 47%
    11:00 +14°C° 0 mm 5 mps 723 mmHg 39%
    12:00 +17°C° 0 mm 5 mps 723 mmHg 31%
    13:00 +19°C° 0 mm 5 mps 722 mmHg 28%
    14:00 +20°C° 0 mm 5 mps 722 mmHg 25%
    15:00 +21°C° 0 mm 5 mps 721 mmHg 22%
    16:00 +17°C° 0 mm 5 mps 721 mmHg 26%
    17:00 +15°C° 0 mm 4 mps 721 mmHg 30%
    18:00 +13°C° 0 mm 4 mps 721 mmHg 34%
    19:00 +12°C° 0 mm 4 mps 722 mmHg 37%
    20:00 +11°C° 0 mm 4 mps 722 mmHg 40%
    21:00 +10°C° 0 mm 4 mps 722 mmHg 43%
    22:00 +8°C° 0 mm 4 mps 723 mmHg 46%
    23:00 +8°C° 0 mm 4 mps 723 mmHg 48%

    Day after tomorrow, 9 June, Tuesday

    Time Temperature Precipitation Wind Pressure Humidity
    00:00 +7°C° 0 mm 4 mps 723 mmHg 50%
    01:00 +6°C° 0 mm 4 mps 723 mmHg 53%
    02:00 +6°C° 0 mm 4 mps 723 mmHg 55%
    03:00 +5°C° 0 mm 4 mps 723 mmHg 57%
    04:00 +5°C° 0 mm 3 mps 723 mmHg 59%
    05:00 +5°C° 0 mm 3 mps 723 mmHg 61%
    06:00 +4°C° 0 mm 3 mps 723 mmHg 63%
    07:00 +6°C° 0 mm 4 mps 723 mmHg 57%
    08:00 +8°C° 0 mm 4 mps 724 mmHg 50%
    09:00 +11°C° 0 mm 4 mps 724 mmHg 43%
    10:00 +13°C° 0 mm 4 mps 724 mmHg 38%
    11:00 +17°C° 0 mm 4 mps 723 mmHg 33%
    12:00 +19°C° 0 mm 4 mps 723 mmHg 28%
    13:00 +20°C° 0 mm 3 mps 723 mmHg 26%
    14:00 +21°C° 0 mm 2 mps 722 mmHg 25%
    15:00 +23°C° 0 mm 1 mps 722 mmHg 23%
    16:00 +19°C° 0 mm 2 mps 722 mmHg 28%
    17:00 +17°C° 0 mm 2 mps 722 mmHg 32%
    18:00 +13°C° 0 mm 3 mps 722 mmHg 37%
    19:00 +13°C° 0 mm 3 mps 722 mmHg 38%
    20:00 +12°C° 0 mm 3 mps 722 mmHg 39%
    21:00 +12°C° 0 mm 3 mps 723 mmHg 39%
    22:00 +11°C° 0 mm 3 mps 723 mmHg 42%
    23:00 +10°C° 0 mm 3 mps 723 mmHg 45%

    10 June, Wednesday

    Time Temperature Precipitation Wind Pressure Humidity
    00:00 +9°C° 0 mm 3 mps 723 mmHg 48%
    01:00 +8°C° 0 mm 3 mps 722 mmHg 51%
    02:00 +8°C° 0 mm 3 mps 722 mmHg 53%
    03:00 +7°C° 0 mm 3 mps 722 mmHg 55%
    04:00 +7°C° 0 mm 3 mps 722 mmHg 59%
    05:00 +5°C° 0 mm 3 mps 722 mmHg 62%
    06:00 +5°C° 0 mm 3 mps 722 mmHg 65%
    07:00 +8°C° 0 mm 3 mps 723 mmHg 60%
    08:00 +10°C° 0 mm 3 mps 723 mmHg 54%
    09:00 +12°C° 0 mm 3 mps 724 mmHg 48%
    10:00 +14°C° 0 mm 3 mps 723 mmHg 42%
    11:00 +18°C° 0 mm 3 mps 723 mmHg 36%
    12:00 +20°C° 0 mm 2 mps 723 mmHg 30%
    13:00 +21°C° 0 mm 2 mps 722 mmHg 27%
    14:00 +21°C° 0 mm 2 mps 722 mmHg 24%
    15:00 +23°C° 0 mm 1 mps 721 mmHg 21%
    16:00 +20°C° 0 mm 2 mps 721 mmHg 25%
    17:00 +18°C° 0 mm 2 mps 721 mmHg 28%
    18:00 +14°C° 0 mm 3 mps 721 mmHg 32%
    19:00 +14°C° 0 mm 3 mps 721 mmHg 33%
    20:00 +13°C° 0 mm 3 mps 722 mmHg 35%
    21:00 +12°C° 0 mm 3 mps 722 mmHg 36%
    22:00 +11°C° 0 mm 3 mps 722 mmHg 40%
    23:00 +11°C° 0 mm 3 mps 722 mmHg 43%

    11 June, Thursday

    Time Temperature Precipitation Wind Pressure Humidity
    00:00 +10°C° 0 mm 3 mps 721 mmHg 47%
    01:00 +9°C° 0 mm 3 mps 721 mmHg 51%
    02:00 +8°C° 0 mm 2 mps 721 mmHg 55%
    03:00 +7°C° 0 mm 2 mps 721 mmHg 59%
    04:00 +7°C° 0 mm 2 mps 721 mmHg 60%
    05:00 +7°C° 0 mm 3 mps 721 mmHg 60%
    06:00 +7°C° 0 mm 3 mps 721 mmHg 60%
    07:00 +9°C° 0 mm 3 mps 722 mmHg 55%
    08:00 +10°C° 0 mm 3 mps 722 mmHg 49%
    09:00 +12°C° 0 mm 3 mps 723 mmHg 43%
    10:00 +16°C° 0 mm 3 mps 722 mmHg 38%
    11:00 +18°C° 0 mm 3 mps 722 mmHg 32%
    12:00 +20°C° 0 mm 3 mps 722 mmHg 26%
    13:00 +21°C° 0 mm 3 mps 721 mmHg 24%
    14:00 +23°C° 0 mm 2 mps 720 mmHg 22%
    15:00 +23°C° 0 mm 2 mps 720 mmHg 20%
    16:00 +20°C° 0 mm 2 mps 719 mmHg 24%
    17:00 +17°C° 0 mm 2 mps 719 mmHg 28%
    18:00 +14°C° 0 mm 3 mps 719 mmHg 32%
    19:00 +13°C° 0 mm 3 mps 719 mmHg 34%
    20:00 +12°C° 0 mm 3 mps 719 mmHg 37%
    21:00 +11°C° 0 mm 3 mps 720 mmHg 39%
    22:00 +10°C° 0 mm 3 mps 720 mmHg 41%
    23:00 +9°C° 0 mm 3 mps 720 mmHg 44%

    12 June, Friday

    Time Temperature Precipitation Wind Pressure Humidity
    00:00 +8°C° 0 mm 3 mps 720 mmHg 47%
    01:00 +8°C° 0 mm 3 mps 720 mmHg 47%
    02:00 +8°C° 0 mm 3 mps 719 mmHg 48%
    03:00 +7°C° 0 mm 3 mps 719 mmHg 49%
    04:00 +7°C° 0 mm 3 mps 719 mmHg 50%
    05:00 +6°C° 0 mm 2 mps 719 mmHg 51%
    06:00 +5°C° 0 mm 2 mps 719 mmHg 52%
    07:00 +8°C° 0 mm 2 mps 720 mmHg 46%
    08:00 +10°C° 0 mm 2 mps 720 mmHg 39%
    09:00 +13°C° 0 mm 2 mps 720 mmHg 33%
    10:00 +16°C° 0 mm 2 mps 720 mmHg 29%
    11:00 +18°C° 0 mm 2 mps 719 mmHg 26%
    12:00 +20°C° 0 mm 2 mps 719 mmHg 22%
    13:00 +21°C° 0 mm 2 mps 718 mmHg 21%
    14:00 +23°C° 0 mm 2 mps 717 mmHg 20%
    15:00 +24°C° 0 mm 2 mps 717 mmHg 20%
    16:00 +20°C° 0 mm 2 mps 716 mmHg 33%
    17:00 +16°C° 0 mm 1 mps 716 mmHg 46%
    18:00 +13°C° 0 mm 1 mps 715 mmHg 59%
    19:00 +12°C° 0 mm 1 mps 716 mmHg 59%
    20:00 +11°C° 0 mm 1 mps 716 mmHg 60%
    21:00 +10°C° 0 mm 0 mps 716 mmHg 61%
    22:00 +11°C° 0 mm 1 mps 716 mmHg 54%
    23:00 +12°C° 0 mm 2 mps 716 mmHg 47%
    Show more